Location: Chippewa Lake
(41.0698°N, 81.9010°W)
Time: 19:58:55
(UTC+00:00)

Landsat 4 - Pass Details

Date: 09 May 2021
Orbit: 505 x 520 km, 98.2° (Epoch: 16 June)

Event Time Altitude Azimuth Distance (km) Brightness Sun altitude
Rises 07:50:13 0° 7° (N) 2,632 8.2 -22.4°
Reaches altitude 10° 07:52:21 10° 1° (N) 1,744 7.1 -22.1°
Enters shadow 07:55:40 46° 304° (NW) 695 4.2 -21.7°
